Weather in Pskov

Russia / Pskov Oblast     57°49′09″N   28°19′55″E
temp.,
°C
wind,
m/s
gust,
m/s
humid.,
%
clouds,
%
prec.,
mm/h
press.,
hPa
HPBL,
m
17 august, wed
wed1700:00+19se228796 1.0 101734
03:00+18sse3789100 1.0 1017122
06:00+18sse2489100 0.0 101786
09:00+22se367371 0.0 1017259
12:00+27se354791 0.0 1017965
15:00+29se343793 0.0 10161480
18:00+28se245055 0.0 1016568
21:00+22ene1166100 0.0 101611
18 august, thu
thu1800:00+20e2271100 0.0 101621
03:00+18sse227928 0.0 101724
06:00+17s22835 0.0 101722
09:00+23s23635 0.0 1018249
12:00+27s34485 0.0 1018757
15:00+29s23445 0.0 10181520
18:00+29sse135133 0.0 10181401
21:00+22se226996 0.0 101817
19 august, fri
fri1900:00+20ese227496 0.0 101930
03:00+18se227476 0.0 102033
06:00+17ese23782 0.0 102045
09:00+22se35615 0.0 1021268
12:00+27sse46443 0.0 1021994
15:00+29se46390 0.0 10201879
18:00+27ese47460 0.0 1020837
21:00+20e39680 0.0 1020167
20 august, sat
sat2000:00+20se396869 0.0 1020250
03:00+18ese388890 0.9 1021222
06:00+16ese398818 0.1 1021250
09:00+19se49700 0.1 1021525
12:00+24se58450 0.0 10201308
15:00+25se574812 0.0 10191635
18:00+25se475245 0.0 10181538
21:00+22ese5125599 0.0 1018513
21 august, sun
sun2100:00+17ese3107012 0.0 1018250
03:00+15ese38873 0.0 1018181
06:00+15ese379212 0.0 1017158
09:00+20se466925 0.0 1017387
12:00+25sse57525 0.0 1016935
15:00+28sse684352 0.0 10151767
18:00+27sse48485 0.0 10141000
21:00+21se4126438 0.0 1015266